Location: Buttermere
(51.3333°N, 1.5167°W)
Time: 11:42:51
(UTC+00:00)

Meteor 2-11 Rocket - Pass Details

Date: 18 September 2020
Orbit: 939 x 957 km, 82.5° (Epoch: 23 October)

Event Time Altitude Azimuth Distance (km) Brightness Sun altitude
Rises 18:44:57 0° 179° (S) 3,621 7.4 -5.8°
Reaches altitude 10° 18:47:26 10° 176° (S) 2,681 6.7 -6.2°
Maximum altitude 18:53:31 68° 95° (E) 1,032 4.5 -7.2°
Drops below altitude 10° 18:59:39 10° 15° (NNE) 2,701 6.8 -8.1°
Sets 19:02:10 0° 13° (NNE) 3,651 7.5 -8.5°
